This demonstration page uses our WeatherBlox Daily Observations layout. Learn more.

Left ArrowRight Arrow

Hourly Observations for May 21, 2018

Temp ( °F °C ) Dew Point ( °F °C ) Humidity (%) Winds ( mph kmh ) Pressure ( in mb ) Visibility ( mi km ) Precip ( " mm )
12:53 am 00:53 Clear 61 16.1 54 12.2 78 78 ENE 3 6 29.82 1010 10 16 0.00 0.00
1:53 am 01:53 Clear 59 15 53 11.7 81 81 Calm 29.82 1010 10 16 0.00 0.00
2:53 am 02:53 Clear 59 15 54 12.2 83 83 Calm 29.82 1010 10 16 0.00 0.00
3:53 am 03:53 Clear 57 13.9 53 11.7 87 87 N 5 7 29.82 1010 10 16 0.00 0.00
4:53 am 04:53 Clear 57 13.9 53 11.7 87 87 Calm 29.82 1010 10 16 0.00 0.00
5:53 am 05:53 Sunny 54 12.2 51 10.6 90 90 E 3 6 29.81 1010 10 16 0.00 0.00
6:53 am 06:53 Sunny 61 16.1 50 10 67 67 NNW 5 7 29.80 1009 10 16 0.00 0.00
7:53 am 07:53 Sunny 67 19.4 50 10 55 55 NW 7 11 29.80 1009 10 16 0.00 0.00
8:53 am 08:53 Sunny 73 22.8 48 8.9 41 41 NNW 10 17 29.79 1009 10 16 0.00 0.00
9:53 am 09:53 Sunny 77 25 49 9.4 37 37 NNW 10 17 29.78 1008 10 16 0.00 0.00
10:53 am 10:53 Sunny 80 26.7 49 9.4 34 34 N 10 17 29.77 1008 10 16 0.00 0.00
11:53 am 11:53 Sunny 85 29.4 49 9.4 29 29 N 8 13 29.75 1007 10 16 0.00 0.00
12:53 pm 12:53 Sunny 86 30 47 8.3 26 26 N 10 17 29.73 1007 10 16 0.00 0.00
1:53 pm 13:53 Sunny 89 31.7 46 7.8 23 23 NNE 6 9 29.71 1006 10 16 0.00 0.00
2:53 pm 14:53 Sunny 89 31.7 45 7.2 22 22 N 8 13 29.69 1005 10 16 0.00 0.00
3:53 pm 15:53 Sunny 91 32.8 43 6.1 19 19 WNW 8 13 29.67 1005 10 16 0.00 0.00
4:53 pm 16:53 Sunny 92 33.3 39 3.9 16 16 NNW 8 13 29.65 1004 10 16 0.00 0.00
5:53 pm 17:53 Sunny 92 33.3 38 3.3 15 15 N 8 13 29.65 1004 10 16 0.00 0.00
6:53 pm 18:53 Sunny 91 32.8 40 4.4 17 17 WNW 3 6 29.64 1004 10 16 0.00 0.00
7:53 pm 19:53 Sunny 86 30 48 8.9 27 27 WSW 3 6 29.65 1004 10 16 0.00 0.00
8:53 pm 20:53 Mostly Clear 79 26.1 56 13.3 45 45 S 8 13 29.68 1005 10 16 0.00 0.00
9:53 pm 21:53 Mostly Cloudy 78 25.6 57 13.9 48 48 SSW 7 11 29.71 1006 10 16 0.00 0.00
10:53 pm 22:53 Mostly Clear 77 25 56 13.3 48 48 SSW 9 15 29.74 1007 10 16 0.00 0.00
11:53 pm 23:53 Clear 74 23.3 54 12.2 50 50 undefined N/A 29.76 1008 10 16 0.00 0.00

Powered by AerisWeather